Weather History for Glasgow, KY

Change the Weather History Date:

Monday, July 1, 2013

  Actual Average Record
Temperature  
Mean Temperature 72 °F -  
Max Temperature 81 °F 87 °F 102 °F (2012)
Min Temperature 62 °F 65 °F 53 °F (1976)
Cooling Degree Days 7    
Growing Degree Days 22 (Base 50)    
Moisture  
Dew Point 64 °F    
Average Humidity 86    
Maximum Humidity 100    
Minimum Humidity 55    
Precipitation  
Precipitation 0.26 in - - ()
Sea Level Pressure  
Sea Level Pressure 29.85 in    
Wind  
Wind Speed 2 mph (NE)    
Max Wind Speed 9 mph    
Max Gust Speed 9 mph    
Visibility 10 miles    
Events Rain , Thunderstorm    
Averages and records for this station are not official NWS values.
T = Trace of Precipitation, MM = Missing Value Source: NWS Daily Summary

Daily Weather History Graph

Daily Weather History Graph

Search for Another Location

Airport:

Trip Planner

Search our weather history database for the weather conditions in past years. The results will help you decide how hot, cold, wet, or windy it might be!

Date:

Astronomy

Jul. 01, 2013 Rise Set
Actual Time 5:27 AM CDT 8:07 PM CDT
Civil Twilight 4:57 AM CDT 8:38 PM CDT
Nautical Twilight 4:18 AM CDT 9:16 PM CDT
Astronomical Twilight 3:35 AM CDT 9:59 PM CDT
Moon 12:51 AM CDT (7/1) 2:26 PM CDT (7/1)
Length of Visible Light 15h 40m
Length of Day
14h 39m
Waning Crescent, 35% of the Moon is Illuminated
Jul 1
Waning Crescent
Jul 8
New
Jul 15
First Quarter
Jul 22
Full
Jul 29
Last Quarter

Hourly Weather History & Observations

Time (CDT) Temp. Heat Index Dew Point Humidity Pressure Visibility Wind Dir Wind Speed Gust Speed Precip Events Conditions
12:15 AM 68.0 °F - 63.1 °F 84% 29.80 in 10.0 mi Calm Calm - N/A   Scattered Clouds
12:35 AM 68.4 °F - 62.8 °F 82% 29.79 in 10.0 mi Calm Calm - N/A   Overcast
12:55 AM 68.2 °F - 63.0 °F 83% 29.79 in 10.0 mi Calm Calm - N/A   Overcast
1:15 AM 68.0 °F - 63.0 °F 84% 29.80 in 10.0 mi East 3.5 mph - N/A   Overcast
1:35 AM 67.8 °F - 63.3 °F 85% 29.80 in 10.0 mi Calm Calm - N/A   Overcast
1:55 AM 68.0 °F - 63.5 °F 85% 29.80 in 10.0 mi Calm Calm - N/A   Overcast
2:15 AM 67.8 °F - 65.5 °F 92% 29.79 in 10.0 mi Calm Calm - N/A Thunderstorm Overcast
2:35 AM 67.6 °F - 67.5 °F 99% 29.78 in 10.0 mi Calm Calm - N/A Thunderstorm Overcast
2:55 AM 67.3 °F - 67.3 °F 100% 29.78 in 10.0 mi Calm Calm - N/A Thunderstorm Thunderstorm
3:15 AM 67.3 °F - 67.3 °F 100% 29.78 in 10.0 mi Calm Calm - N/A Thunderstorm Overcast
3:35 AM 67.8 °F - 67.3 °F 98% 29.78 in 10.0 mi Calm Calm - N/A Thunderstorm Overcast
3:55 AM 67.6 °F - 67.6 °F 100% 29.79 in 7.0 mi NW 5.8 mph - N/A Rain Light Rain
4:15 AM 66.9 °F - 66.9 °F 100% 29.80 in 7.0 mi NW 9.2 mph - N/A Thunderstorm Unknown
4:35 AM 66.4 °F - 66.4 °F 100% 29.81 in 10.0 mi NNW 5.8 mph - N/A Thunderstorm Overcast
4:55 AM 66.4 °F - 66.4 °F 100% 29.81 in 10.0 mi NW 6.9 mph - N/A Thunderstorm Thunderstorm
5:15 AM 65.1 °F - 64.6 °F 98% 29.81 in 10.0 mi North 8.1 mph - N/A Thunderstorm Thunderstorm
5:35 AM 63.9 °F - 61.7 °F 93% 29.81 in 10.0 mi Calm Calm - N/A   Scattered Clouds
5:55 AM 63.7 °F - 62.2 °F 95% 29.81 in 10.0 mi Calm Calm - N/A   Mostly Cloudy
6:15 AM 63.7 °F - 63.7 °F 100% 29.83 in 10.0 mi Calm Calm - N/A Rain , Thunderstorm Light Thunderstorms and Rain
6:35 AM 64.0 °F - 63.9 °F 99% 29.83 in 10.0 mi Calm Calm - N/A Thunderstorm Mostly Cloudy
6:55 AM 64.2 °F - 64.2 °F 100% 29.84 in 10.0 mi East 3.5 mph - N/A Thunderstorm Mostly Cloudy
7:15 AM 64.6 °F - 63.1 °F 95% 29.86 in 10.0 mi WNW 3.5 mph - N/A Thunderstorm Overcast
7:35 AM 64.9 °F - 60.8 °F 86% 29.86 in 10.0 mi WNW 5.8 mph - N/A Thunderstorm Overcast
7:55 AM 65.1 °F - 61.2 °F 87% 29.85 in 10.0 mi North 3.5 mph - N/A   Overcast
8:15 AM 66.4 °F - 61.3 °F 84% 29.86 in 10.0 mi Calm Calm - N/A   Scattered Clouds
8:35 AM 67.6 °F - 61.7 °F 81% 29.86 in 10.0 mi East 5.8 mph - N/A   Clear
8:55 AM 69.4 °F - 62.1 °F 77% 29.87 in 10.0 mi Calm Calm - N/A   Scattered Clouds
9:15 AM 69.6 °F - 61.2 °F 74% 29.86 in 10.0 mi NE 3.5 mph - N/A   Clear
9:35 AM 70.5 °F - 61.3 °F 73% 29.86 in 10.0 mi East 4.6 mph - N/A   Clear
9:55 AM 72.3 °F - 60.6 °F 67% 29.86 in 10.0 mi North 4.6 mph - N/A   Clear
10:15 AM 73.0 °F - 60.3 °F 64% 29.87 in 10.0 mi Calm Calm - N/A   Clear
10:35 AM 74.1 °F - 60.3 °F 62% 29.86 in 10.0 mi Calm Calm - N/A   Clear
10:55 AM 75.7 °F - 59.7 °F 57% 29.87 in 10.0 mi Calm Calm - N/A   Clear
11:15 AM 76.6 °F - 60.8 °F 58% 29.87 in 10.0 mi East 5.8 mph - N/A   Clear
11:35 AM 77.7 °F - 61.9 °F 58% 29.86 in 10.0 mi NE 3.5 mph - N/A   Scattered Clouds
11:55 AM 78.1 °F - 62.2 °F 58% 29.86 in 10.0 mi Calm Calm - N/A   Mostly Cloudy
12:15 PM 77.5 °F - 62.6 °F 60% 29.85 in 10.0 mi East 3.5 mph - N/A   Mostly Cloudy
12:35 PM 79.5 °F - 62.8 °F 56% 29.84 in 10.0 mi NE 3.5 mph - N/A   Scattered Clouds
12:55 PM 80.1 °F 81.4 °F 62.8 °F 55% 29.83 in 10.0 mi ENE 3.5 mph - N/A   Scattered Clouds
1:15 PM 81.0 °F 82.3 °F 63.3 °F 55% 29.81 in 10.0 mi NNE 3.5 mph - N/A   Scattered Clouds
1:35 PM 79.2 °F - 62.8 °F 57% 29.81 in 10.0 mi Calm Calm - N/A Thunderstorm Scattered Clouds
1:55 PM 77.7 °F - 63.0 °F 60% 29.81 in 10.0 mi North 3.5 mph - N/A   Scattered Clouds
2:15 PM 76.8 °F - 63.3 °F 63% 29.83 in 10.0 mi North 3.5 mph - N/A Rain Light Rain
2:35 PM 74.5 °F - 64.6 °F 71% 29.84 in 3.0 mi Calm Calm - 0.04 in Rain , Thunderstorm Heavy Thunderstorms and Rain
2:55 PM 71.8 °F - 67.6 °F 87% 29.85 in 5.0 mi SSW 6.9 mph - 0.10 in Rain , Thunderstorm Thunderstorms and Rain
3:15 PM 68.7 °F - 67.8 °F 97% 29.86 in 2.5 mi SW 6.9 mph - 0.14 in Rain , Thunderstorm Heavy Thunderstorms and Rain
3:35 PM 68.2 °F - 67.6 °F 98% 29.83 in 10.0 mi Calm Calm - 0.15 in Rain , Thunderstorm Light Thunderstorms and Rain
3:55 PM 68.2 °F - 66.2 °F 93% 29.86 in 10.0 mi SSE 3.5 mph - 0.15 in Thunderstorm Mostly Cloudy
4:15 PM 67.5 °F - 66.4 °F 96% 29.87 in 10.0 mi Calm Calm - N/A Rain Light Rain
4:35 PM 67.5 °F - 66.7 °F 98% 29.87 in 10.0 mi East 3.5 mph - N/A Rain Light Rain
4:55 PM 66.9 °F - 66.9 °F 100% 29.88 in 10.0 mi ESE 9.2 mph - N/A Rain , Thunderstorm Light Thunderstorms and Rain
5:15 PM 66.9 °F - 66.9 °F 100% 29.87 in 10.0 mi East 5.8 mph 9.2 mph 0.01 in Rain Light Rain
5:35 PM 67.1 °F - 65.8 °F 96% 29.88 in 10.0 mi East 5.8 mph - 0.01 in   Overcast
5:55 PM 67.6 °F - 63.7 °F 87% 29.87 in 10.0 mi Calm Calm - 0.01 in   Scattered Clouds
6:15 PM 68.7 °F - 62.8 °F 81% 29.87 in 10.0 mi Calm Calm - N/A   Clear
6:35 PM 69.4 °F - 62.2 °F 78% 29.88 in 10.0 mi ESE 3.5 mph - N/A   Clear
6:55 PM 69.6 °F - 62.1 °F 77% 29.88 in 10.0 mi Calm Calm - N/A   Clear
7:15 PM 69.3 °F - 62.2 °F 78% 29.88 in 10.0 mi Calm Calm - N/A   Clear
7:35 PM 67.6 °F - 63.1 °F 85% 29.89 in 10.0 mi Calm Calm - N/A   Clear
7:55 PM 66.6 °F - 66.4 °F 99% 29.89 in 10.0 mi East 4.6 mph - N/A   Clear
8:15 PM 65.3 °F - 65.3 °F 100% 29.89 in 10.0 mi Calm Calm - N/A   Clear
8:35 PM 65.3 °F - 65.3 °F 100% 29.89 in 10.0 mi Calm Calm - N/A   Clear
8:55 PM 64.6 °F - 64.6 °F 100% 29.90 in 10.0 mi Calm Calm - N/A   Clear
9:15 PM 64.2 °F - 64.2 °F 100% 29.90 in 10.0 mi Calm Calm - N/A   Clear
9:35 PM 63.9 °F - 63.9 °F 100% 29.90 in 10.0 mi Calm Calm - N/A   Clear
9:55 PM 63.1 °F - 63.1 °F 100% 29.91 in 10.0 mi ESE 3.5 mph - N/A   Clear
10:15 PM 63.3 °F - 63.3 °F 100% 29.91 in 10.0 mi East 3.5 mph - N/A   Clear
10:35 PM 63.7 °F - 63.7 °F 100% 29.91 in 10.0 mi Calm Calm - N/A   Scattered Clouds
10:55 PM 63.5 °F - 63.5 °F 100% 29.91 in 10.0 mi Calm Calm - N/A   Scattered Clouds
11:15 PM 63.5 °F - 63.5 °F 100% 29.91 in 10.0 mi NNW 3.5 mph - N/A   Clear
11:35 PM 63.3 °F - 63.3 °F 100% 29.91 in 10.0 mi Calm Calm - N/A   Clear
11:55 PM 62.6 °F - 62.6 °F 100% 29.91 in 7.0 mi Calm Calm - N/A   Scattered Clouds